Weather History for Poplar Bluff, MO

Change the Weather History Date:

Monday, December 26, 2011

  Actual Average Record
Temperature  
Mean Temperature 34 °F -  
Max Temperature 39 °F 41 °F 75 °F (1942)
Min Temperature 30 °F 24 °F -5 °F (1926)
Degree Days  
Heating Degree Days 30    
Moisture  
Dew Point 32 °F    
Average Humidity 86    
Maximum Humidity 96    
Minimum Humidity 70    
Precipitation  
Precipitation 1.14 in - - ()
Sea Level Pressure  
Sea Level Pressure 30.14 in    
Wind  
Wind Speed 3 mph (NE)    
Max Wind Speed 13 mph    
Max Gust Speed 20 mph    
Visibility 7 miles    
Events Rain    
Averages and records for this station are not official NWS values.
T = Trace of Precipitation, MM = Missing Value Source: NWS Daily Summary

Daily Weather History Graph

Daily Weather History Graph

Search for Another Location

Airport:

Trip Planner

Search our weather history database for the weather conditions in past years. The results will help you decide how hot, cold, wet, or windy it might be!

Date:

Astronomy

Dec. 26, 2011 Rise Set
Actual Time 7:12 AM CST 4:51 PM CST
Civil Twilight 6:43 AM CST 5:20 PM CST
Nautical Twilight 6:10 AM CST 5:52 PM CST
Astronomical Twilight 5:39 AM CST 6:24 PM CST
Moon 8:35 AM CST (12/26) 7:16 PM CST (12/26)
Length of Visible Light 10h 36m
Length of Day
9h 39m
Waxing Crescent, 5% of the Moon is Illuminated
Dec 26
Waxing Crescent
Jan 1
First Quarter
Jan 9
Full
Jan 16
Last Quarter
Jan 23
New

Hourly Weather History & Observations

Time (CST) Temp. Windchill Dew Point Humidity Pressure Visibility Wind Dir Wind Speed Gust Speed Precip Events Conditions
12:53 AM 30.9 °F - 27.0 °F 85% 30.36 in 10.0 mi Calm Calm - N/A   Clear
1:53 AM 32.0 °F 27.5 °F 27.0 °F 82% 30.37 in 10.0 mi NE 4.6 mph - N/A   Clear
2:53 AM 36.0 °F 32.1 °F 27.0 °F 70% 30.35 in 10.0 mi ENE 4.6 mph - N/A   Clear
3:53 AM 33.1 °F - 26.1 °F 75% 30.35 in 10.0 mi Calm Calm - N/A   Clear
4:53 AM 30.0 °F - 26.1 °F 85% 30.34 in 10.0 mi Calm Calm - N/A   Clear
5:53 AM 30.0 °F - 26.1 °F 85% 30.35 in 10.0 mi Calm Calm - N/A   Clear
6:53 AM 30.9 °F 27.5 °F 27.0 °F 85% 30.34 in 10.0 mi NW 3.5 mph - N/A   Clear
7:53 AM 34.0 °F 29.8 °F 28.0 °F 79% 30.32 in 10.0 mi NE 4.6 mph - N/A   Clear
8:53 AM 34.0 °F 31.0 °F 30.0 °F 85% 30.31 in 10.0 mi NE 3.5 mph - N/A   Clear
9:53 AM 37.0 °F 31.0 °F 30.9 °F 79% 30.31 in 10.0 mi East 8.1 mph - N/A   Partly Cloudy
10:53 AM 37.9 °F - 30.9 °F 76% 30.28 in 10.0 mi Calm Calm - N/A   Mostly Cloudy
11:53 AM 39.0 °F 35.7 °F 30.9 °F 73% 30.22 in 10.0 mi NE 4.6 mph - 0.00 in   Overcast
12:53 PM 39.0 °F - 33.1 °F 79% 30.16 in 10.0 mi Calm Calm - 0.01 in Rain Light Rain
1:53 PM 39.9 °F 36.7 °F 33.1 °F 77% 30.13 in 10.0 mi NE 4.6 mph - 0.00 in   Overcast
2:53 PM 39.9 °F 36.7 °F 34.0 °F 79% 30.13 in 10.0 mi NNW 4.6 mph - 0.01 in Rain Light Rain
4:53 PM 37.9 °F 32.7 °F 35.1 °F 89% 30.11 in 5.0 mi NE 6.9 mph - 0.08 in Rain Rain
5:53 PM 37.9 °F 32.7 °F 36.0 °F 93% 30.08 in 5.0 mi NE 6.9 mph - 0.10 in Rain Rain
6:53 PM 37.0 °F 31.0 °F 35.1 °F 93% 30.03 in 6.0 mi ENE 8.1 mph - 0.12 in Rain Light Rain
7:26 PM 37.4 °F 30.8 °F 35.6 °F 93% 29.99 in 3.0 mi ENE 9.2 mph - 0.07 in Rain Rain
7:53 PM 37.0 °F 30.4 °F 35.1 °F 93% 29.98 in 5.0 mi ENE 9.2 mph - 0.12 in Rain Light Rain
8:27 PM 37.4 °F 34.9 °F 35.6 °F 93% 29.99 in 2.5 mi East 3.5 mph - 0.16 in Rain Heavy Rain
8:37 PM 37.4 °F 33.8 °F 35.6 °F 93% 29.98 in 3.0 mi East 4.6 mph - 0.22 in Rain Heavy Rain
8:53 PM 37.0 °F 33.3 °F 36.0 °F 96% 29.97 in 3.0 mi ENE 4.6 mph - 0.30 in Rain Heavy Rain
9:53 PM 37.9 °F 33.5 °F 36.0 °F 93% 29.94 in 4.0 mi East 5.8 mph - 0.20 in Rain Rain
10:36 PM 37.4 °F 29.3 °F 35.6 °F 93% 29.83 in 5.0 mi NE 12.7 mph - 0.14 in Rain Light Rain
10:53 PM 37.9 °F 32.7 °F 36.0 °F 93% 29.85 in 8.0 mi East 6.9 mph 19.6 mph 0.14 in Rain Light Rain
11:13 PM 37.4 °F - 35.6 °F 93% 29.86 in 3.0 mi Calm Calm - 0.04 in Rain Rain
11:53 PM 37.9 °F 33.5 °F 36.0 °F 93% 29.87 in 6.0 mi NNW 5.8 mph - 0.06 in Rain Light Rain